TimeEDT,TemperatureF,Dew PointF,Humidity,Sea Level PressureIn,VisibilityMPH,Wind Direction,Wind SpeedMPH,Gust SpeedMPH,PrecipitationIn,Events,Conditions,WindDirDegrees,DateUTC
12:53 AM,71.1,60.1,68,29.83,10.0,SE,6.9,-,N/A,,Clear,130,2013-05-20 04:53:00
1:53 AM,70.0,61.0,73,29.82,10.0,SE,9.2,-,N/A,,Clear,140,2013-05-20 05:53:00
2:53 AM,71.1,62.1,73,29.83,10.0,SE,6.9,-,N/A,,Clear,140,2013-05-20 06:53:00
4:53 AM,70.0,62.1,76,29.82,10.0,SE,8.1,-,N/A,,Clear,140,2013-05-20 08:53:00
5:53 AM,72.0,63.0,73,29.79,10.0,SSE,10.4,-,N/A,,Clear,150,2013-05-20 09:53:00
7:53 AM,73.9,66.0,76,29.83,8.0,SSE,8.1,-,N/A,,Clear,160,2013-05-20 11:53:00
8:53 AM,77.0,66.9,71,29.85,9.0,South,11.5,-,N/A,,Scattered Clouds,180,2013-05-20 12:53:00
9:53 AM,80.1,68.0,67,29.83,10.0,South,12.7,-,N/A,,Partly Cloudy,180,2013-05-20 13:53:00
10:17 AM,80.6,68.0,65,29.84,10.0,South,11.5,-,N/A,,Mostly Cloudy,190,2013-05-20 14:17:00
10:33 AM,82.4,68.0,62,29.83,10.0,SSE,11.5,-,N/A,,Scattered Clouds,160,2013-05-20 14:33:00
10:40 AM,80.6,68.0,65,29.83,10.0,SSE,12.7,-,N/A,,Mostly Cloudy,150,2013-05-20 14:40:00
10:53 AM,81.0,68.0,65,29.82,10.0,SSW,9.2,-,N/A,,Mostly Cloudy,210,2013-05-20 14:53:00
11:30 AM,84.2,68.0,58,29.81,10.0,South,11.5,-,N/A,,Scattered Clouds,170,2013-05-20 15:30:00
11:53 AM,86.0,68.0,55,29.81,10.0,SSE,15.0,20.7,N/A,,Partly Cloudy,150,2013-05-20 15:53:00
12:53 PM,87.1,66.0,49,29.79,10.0,South,11.5,23.0,N/A,,Partly Cloudy,170,2013-05-20 16:53:00
1:53 PM,86.0,63.0,46,29.80,10.0,WSW,15.0,20.7,N/A,,Mostly Cloudy,250,2013-05-20 17:53:00
2:53 PM,82.9,62.1,49,29.78,10.0,SW,17.3,26.5,N/A,,Clear,230,2013-05-20 18:53:00
3:53 PM,86.0,61.0,43,29.78,10.0,SW,17.3,25.3,N/A,,Clear,230,2013-05-20 19:53:00
4:53 PM,88.0,59.0,37,29.76,10.0,SW,16.1,29.9,N/A,,Clear,220,2013-05-20 20:53:00
5:53 PM,88.0,57.0,35,29.76,10.0,SSW,19.6,28.8,N/A,,Clear,210,2013-05-20 21:53:00
6:53 PM,88.0,55.9,34,29.74,10.0,SSW,13.8,27.6,N/A,,Clear,210,2013-05-20 22:53:00
7:53 PM,87.1,57.0,36,29.74,10.0,SSW,15.0,19.6,N/A,,Clear,210,2013-05-20 23:53:00
8:53 PM,82.0,55.9,41,29.75,10.0,SW,6.9,-,N/A,,Clear,230,2013-05-21 00:53:00
9:53 PM,77.0,57.0,50,29.75,10.0,SE,3.5,-,N/A,,Clear,140,2013-05-21 01:53:00
10:53 PM,75.0,61.0,62,29.76,10.0,SSE,6.9,-,N/A,,Clear,150,2013-05-21 02:53:00
11:53 PM,75.0,62.1,64,29.75,10.0,South,5.8,-,N/A,,Clear,170,2013-05-21 03:53:00